星链-34425 (STARLINK-34425)

导读

STARLINK-34425是美国SpaceX星链星座的一员,于2025年6月13日发射升空。作为星链低轨互联网星座扩容部署的组成部分,该卫星承担着为全球提供高速宽带互联网接入服务的任务,依托低轨轨道特性,能减少信号传输延迟,助力提升星链系统覆盖密度与服务稳定性,符合SpaceX持续推进星座组网的发展规划。

基本信息
目录编号:
64350
目录名称:
STARLINK-34425
国际标识:
2025-126G
轨道中心:
EARTH
卫星名称:
星链-34425
卫星全名:
星链-34425 (STARLINK-34425)
卫星状态:
在轨 (已飞行448 天)
发射日期:
2025-06-13 UTC
国别 :
美国 (US)
星等 :
--
轨道信息
数据来源 国际轨道数据
星历时间: 2026-09-04T06:00:02+0800
8小时前
查看轨道信息
半长轴: 6876.817km
偏心率: 0.0002254
轨道倾角: 70.000°
近地点辐角 278.543°
升交点赤经 304.864°
平近点角 100.691°
近地点: 497.129km
远地点: 500.231km
周期: 94.589分钟
每日圈数: 15.223749
详细信息
固有亮度:
5
最大亮度:
2.5
卫星平台:
Starlink V1.0
覆盖范围:
全球
运营商:
太空探索技术公司
运营商所在国:
美国
制造商(研发单位):
太空探索技术公司
制造商所在国:
美国
使用方式:
暂无
卫星简介
Starlink 计划是 SpaceX 推出的全球卫星互联网项目,通过发射低轨道卫星,为全球尤其是偏远地区提供高速、低延迟的互联网服务。自 2019 年起,Starlink 已部署数千颗卫星,旨在缩小全球数字鸿沟,推动互联网普及。该项目还为军事、航空等行业提供通信支持,带来广泛经济效益。
2D轨道图
3D轨道图
轨道高度分析图
轨道倾角分析图
轨道综合分析图
查看轨道综合分析图
交会数据列表
事件ID 空间交会对象 最接近时刻(TCA) 交会距离 交会风险概率(CRP) 交会风险指数(CRI) 操作
CDM_260904-002605-858906-435021
2026-09-04T
00:26:38+0000
0.759 km
远距离
4.119887E-5 中风险 0.67
CDM_260904-220905-875406-435021
2026-09-04T
22:09:00+0000
1.115 km
极远距离
1.562278E-5 中风险 0.59
CDM_260904-022805-734706-435021
2026-09-04T
02:28:04+0000
1.495 km
极远距离
3.009605E-6 低风险 0.45
CDM_260904-113806-435006-811021
2026-09-04T
11:38:24+0000
2.159 km
极远距离
2.03929E-6 低风险 0.41
CDM_260904-072605-708306-435021
2026-09-04T
07:26:01+0000
2.635 km
极远距离
1.41256E-6 低风险 0.38
CDM_260831-201106-403606-435021
2026-08-31T
20:11:26+0000
2.523 km
极远距离
1.301695E-6 低风险 0.37
CDM_260905-121104-744806-435021
CUBEL (47448)
2026-09-05T
12:11:27+0000
2.534 km
极远距离
7.691269E-7 极低风险 0.33
CDM_260905-112404-744806-435021
CUBEL (47448)
2026-09-05T
11:24:45+0000
2.800 km
极远距离
6.694219E-7 极低风险 0.32